This demonstration page uses our WeatherBlox Daily Observations layout. Learn more.

Left ArrowRight Arrow

39.01783, -85.05884

Hourly Observations for September 20, 2020

Temp ( °F °C ) Dew Point ( °F °C ) Humidity (%) Winds ( mph kmh ) Pressure ( in mb ) Visibility ( mi km ) Precip ( " mm )
12:52 am 00:52 Clear 53 11.7 38 3.3 57 57 ENE 7 11 30.32 1027 10 16 0.00 0.00
1:52 am 01:52 Clear 53 11.7 39 3.9 59 59 ENE 7 11 30.32 1027 10 16 0.00 0.00
2:52 am 02:52 Clear 53 11.7 38 3.3 57 57 ENE 9 15 30.33 1027 10 16 0.00 0.00
3:52 am 03:52 Clear 53 11.7 39 3.9 59 59 NE 10 17 30.32 1027 10 16 0.00 0.00
4:52 am 04:52 Clear 51 10.6 39 3.9 64 64 ENE 8 13 30.33 1027 10 16 0.00 0.00
5:52 am 05:52 Clear 50 10 39 3.9 66 66 NE 7 11 30.34 1027 10 16 0.00 0.00
6:52 am 06:52 Clear 49 9.4 39 3.9 69 69 NNE 8 13 30.35 1028 10 16 0.00 0.00
7:52 am 07:52 Sunny 48 8.9 37 2.8 66 66 NE 8 13 30.37 1029 10 16 0.00 0.00
8:52 am 08:52 Sunny 51 10.6 38 3.3 61 61 ENE 9 15 30.39 1029 10 16 0.00 0.00
9:52 am 09:52 Sunny 55 12.8 38 3.3 53 53 ENE 8 13 30.40 1029 10 16 0.00 0.00
10:52 am 10:52 Sunny 60 15.6 37 2.8 42 42 ENE 10 17 30.41 1030 10 16 0.00 0.00
11:52 am 11:52 Sunny 64 17.8 36 2.2 35 35 ENE 13 20 30.42 1030 10 16 0.00 0.00
12:52 pm 12:52 Sunny 68 20 37 2.8 32 32 ENE 14 22 30.41 1030 10 16 0.00 0.00
1:52 pm 13:52 Sunny 70 21.1 34 1.1 27 27 E 12 19 30.39 1029 10 16 0.00 0.00
2:52 pm 14:52 Sunny 71 21.7 32 0 24 24 E 14 22 30.37 1029 10 16 0.00 0.00
3:52 pm 15:52 Sunny 72 22.2 31 -0.6 22 22 ENE 15 24 30.35 1028 10 16 0.00 0.00
4:52 pm 16:52 Sunny 72 22.2 31 -0.6 22 22 ENE 15 24 30.34 1028 10 16 0.00 0.00
5:52 pm 17:52 Sunny 71 21.7 32 0 24 24 E 13 20 30.35 1028 10 16 0.00 0.00
6:52 pm 18:52 Mostly Sunny 68 20 33 0.6 27 27 E 14 22 30.35 1028 10 16 0.00 0.00
7:52 pm 19:52 Mostly Clear 63 17.2 35 1.7 35 35 E 8 13 30.36 1028 10 16 0.00 0.00
8:52 pm 20:52 Mostly Clear 59 15 37 2.8 44 44 E 9 15 30.37 1028 10 16 0.00 0.00
9:52 pm 21:52 Mostly Clear 60 15.6 39 3.9 46 46 E 8 13 30.38 1029 10 16 0.00 0.00
10:52 pm 22:52 Clear 57 13.9 40 4.4 53 53 E 8 13 30.38 1029 10 16 0.00 0.00
11:52 pm 23:52 Clear 57 13.9 40 4.4 53 53 E 8 13 30.38 1029 10 16 0.00 0.00

Powered by AerisWeather